Flag for Sweden Weather past 2 weeks in Uppsala, Sweden

37 °F

Passing clouds.

Feels Like: 28 °F
Forecast: 34 / 47 °F
Wind: 16 mph from Southwest

Location: Stockholm / Arlanda

Current Time: Nov 26, 2015 at 5:59:23 PM

Latest Report: Nov 26, 2015 at 5:20 PM

Visibility: N/A

Pressure: 29.74 "Hg

Humidity: 87%

Dew point: 34 °F

Location of UppsalaLocation

Historic Weather in Uppsala — Graph


Uppsala temperature yesterday

Maximum temperature yesterday: 37 °F (at 12:20 AM)
Minimum temperature yesterday: 36 °F (at 5:20 AM)
Average temperature yesterday: 37 °F

Past Weeks' High & Low Weather Summary

High48 °F (Nov 13, 3:50 PM)100% (Nov 11, 4:50 PM)29.98 "Hg (Nov 11, 4:50 PM)
Low12 °F (Nov 23, 3:50 AM)59% (Nov 22, 7:20 PM)29.21 "Hg (Nov 18, 6:50 AM)
Average35 °F91%29.55 "Hg
* Reported Nov 11 4:20 PM — Nov 26 4:50 PM, Uppsala, Weather by CustomWeather, © 2015

Note: Actual official high and low records may vary slightly from our data, if they occured in-between our weather recording intervals... More about our weather records


Uppsala weather history for previous 24 hours

Time TempWeatherWind HumidityBarometerVisibility
4:50 PM
Thu, Nov 26
37 °FPassing clouds.15 mph87%29.74 "HgN/A
4:20 PM37 °FPassing clouds.15 mph87%29.77 "HgN/A
3:50 PM37 °FPassing clouds.16 mph93%29.74 "HgN/A
3:20 PM37 °FPassing clouds.10 mph93%29.74 "HgN/A
2:50 PM37 °FBroken clouds.7 mph93%29.74 "HgN/A
2:20 PM37 °FPartly sunny.10 mph93%29.74 "HgN/A
1:50 PM37 °FPartly sunny.10 mph93%29.74 "HgN/A
1:20 PM37 °FBroken clouds.10 mph93%29.74 "HgN/A
12:50 PM37 °FPartly sunny.8 mph93%29.74 "HgN/A
12:20 PM37 °FPartly sunny.9 mph100%29.74 "HgN/A
11:50 AM37 °FBroken clouds.9 mph100%29.74 "HgN/A
11:20 AM36 °FFog.8 mph100%29.74 "Hg4 mi
10:50 AM36 °FFog.8 mph100%29.71 "Hg4 mi
10:20 AM36 °FFog.7 mph100%29.71 "Hg5 mi
9:50 AM36 °FFog.7 mph100%29.71 "Hg4 mi
9:20 AM36 °FFog.5 mph100%29.68 "Hg2 mi
8:50 AM36 °FFog.6 mph100%29.68 "Hg1 mi
8:20 AM34 °FFog.7 mph100%29.68 "Hg1 mi
7:20 AM36 °FFog.5 mph100%29.65 "Hg1 mi
6:50 AM36 °FFog.6 mph100%29.65 "Hg1 mi
6:20 AM36 °FFog.7 mph100%29.62 "Hg2 mi
5:50 AM36 °FLow clouds.6 mph100%29.62 "Hg2 mi
5:20 AM34 °FFog.3 mph100%29.62 "Hg1 mi
4:50 AM34 °FFog.3 mph100%29.62 "Hg1 mi
4:20 AM34 °FDrizzle. Fog.2 mph100%29.59 "Hg3 mi
3:50 AM34 °FLight rain. Low clouds.3 mph100%29.59 "Hg4 mi
3:20 AM34 °FLight rain. Low clouds.3 mph100%29.59 "Hg1 mi
2:50 AM34 °FLight rain. Passing clouds.3 mph100%29.59 "HgN/A
2:20 AM34 °FPassing clouds.3 mph100%29.59 "HgN/A
1:20 AM34 °FLight rain. Partly cloudy.5 mph100%29.56 "HgN/A
12:50 AM34 °FLight rain. Passing clouds.6 mph100%29.56 "HgN/A
12:20 AM36 °FLight rain. Passing clouds.5 mph93%29.56 "HgN/A
11:50 PM
Wed, Nov 25
36 °FLight rain. Passing clouds.6 mph93%29.56 "HgN/A
11:20 PM36 °FLight rain. Passing clouds.6 mph93%29.56 "HgN/A
10:50 PM36 °FLight rain. Passing clouds.7 mph93%29.56 "HgN/A
10:20 PM36 °FLight rain. Passing clouds.7 mph93%29.56 "HgN/A
9:50 PM36 °FPassing clouds.8 mph100%29.56 "HgN/A
9:20 PM36 °FPassing clouds.8 mph100%29.56 "HgN/A
8:50 PM36 °FDrizzle. Mostly cloudy.7 mph100%29.53 "Hg5 mi
8:20 PM36 °FPassing clouds.6 mph100%29.53 "Hg6 mi
7:50 PM36 °FPassing clouds.7 mph100%29.53 "Hg6 mi
7:20 PM37 °FDrizzle. Fog.7 mph93%29.53 "Hg5 mi
6:50 PM37 °FPassing clouds.7 mph93%29.53 "HgN/A
6:20 PM37 °FPassing clouds.8 mph93%29.53 "HgN/A
5:50 PM36 °FPassing clouds.8 mph100%29.53 "HgN/A
5:20 PM37 °FPartly cloudy.9 mph93%29.53 "HgN/A
Weather by CustomWeather, © 2015

See weather overviewHow to use our weather pages